Weather History for Manchester, NH

Change the Weather History Date:

Thursday, February 27, 2014

  Actual Average Record
Temperature  
Mean Temperature 17 °F -  
Max Temperature 26 °F 35 °F 57 °F (2009)
Min Temperature 8 °F 15 °F -15 °F (1993)
Degree Days  
Heating Degree Days 48    
Moisture  
Dew Point -1 °F    
Average Humidity 48    
Maximum Humidity 68    
Minimum Humidity 31    
Precipitation  
Precipitation 0.00 in - - ()
Snow  
Snow 0.00 in - - ()
Snow Depth 9.00 in    
Sea Level Pressure  
Sea Level Pressure 29.78 in    
Wind  
Wind Speed 6 mph (WSW)    
Max Wind Speed 15 mph    
Max Gust Speed 30 mph    
Visibility 9 miles    
Events Snow    
Averages and records for this station are not official NWS values.
T = Trace of Precipitation, MM = Missing Value Source: NWS Daily Summary

Daily Weather History Graph

Daily Weather History Graph

Search for Another Location

Airport:

Trip Planner

Search our weather history database for the weather conditions in past years. The results will help you decide how hot, cold, wet, or windy it might be!

Date:

Astronomy

Feb. 27, 2014 Rise Set
Actual Time 6:24 AM EST 5:32 PM EST
Civil Twilight 5:56 AM EST 6:01 PM EST
Nautical Twilight 5:23 AM EST 6:33 PM EST
Astronomical Twilight 4:50 AM EST 7:06 PM EST
Moon 4:57 AM EST 3:53 PM EST
Length of Visible Light 12h 04m
Length of Day
11h 07m
Waning Crescent, 4% of the Moon is Illuminated
Feb 27
Waning Crescent
Mar 1
New
Mar 8
First Quarter
Mar 16
Full
Mar 23
Last Quarter

Hourly Weather History & Observations

Time (EST) Temp. Windchill Dew Point Humidity Pressure Visibility Wind Dir Wind Speed Gust Speed Precip Events Conditions
12:53 AM 8.1 °F 1.4 °F -4.0 °F 58% 29.92 in 10.0 mi South 3.5 mph - N/A   Scattered Clouds
1:53 AM 8.1 °F 1.4 °F -5.1 °F 55% 29.91 in 10.0 mi SSW 3.5 mph - N/A   Scattered Clouds
2:53 AM 8.1 °F 1.4 °F -5.1 °F 55% 29.89 in 10.0 mi South 3.5 mph - N/A   Mostly Cloudy
3:53 AM 8.1 °F - -4.0 °F 58% 29.87 in 10.0 mi Calm Calm - N/A   Mostly Cloudy
4:53 AM 8.1 °F - -4.0 °F 58% 29.84 in 10.0 mi Calm Calm - N/A   Mostly Cloudy
5:53 AM 8.1 °F - -4.0 °F 58% 29.83 in 10.0 mi Calm Calm - N/A   Mostly Cloudy
6:53 AM 8.1 °F - -4.0 °F 58% 29.80 in 10.0 mi Calm Calm - N/A   Scattered Clouds
7:53 AM 9.0 °F - -2.0 °F 61% 29.79 in 10.0 mi Calm Calm - N/A   Scattered Clouds
8:53 AM 12.9 °F 3.8 °F -4.0 °F 47% 29.79 in 10.0 mi South 5.8 mph - N/A   Scattered Clouds
9:53 AM 18.0 °F 6.9 °F -5.1 °F 36% 29.77 in 10.0 mi South 9.2 mph - N/A   Scattered Clouds
10:53 AM 19.0 °F 7.5 °F -7.1 °F 31% 29.74 in 10.0 mi SW 10.4 mph - N/A   Scattered Clouds
11:53 AM 21.9 °F 11.0 °F -4.0 °F 32% 29.69 in 10.0 mi South 10.4 mph - N/A   Scattered Clouds
12:53 PM 24.1 °F 15.2 °F -2.0 °F 32% 29.64 in 10.0 mi SW 8.1 mph - N/A   Mostly Cloudy
1:53 PM 25.0 °F 19.3 °F -0.0 °F 34% 29.61 in 10.0 mi SSW 4.6 mph - N/A   Overcast
2:53 PM 26.1 °F 15.0 °F 8.1 °F 47% 29.64 in 10.0 mi West 12.7 mph 18.4 mph N/A   Mostly Cloudy
3:53 PM 25.0 °F 12.6 °F 3.9 °F 41% 29.67 in 10.0 mi West 15.0 mph 21.9 mph N/A   Mostly Cloudy
4:53 PM 24.1 °F 14.4 °F 1.0 °F 37% 29.68 in 10.0 mi WNW 9.2 mph - N/A   Scattered Clouds
5:53 PM 23.0 °F 18.4 °F -0.9 °F 35% 29.69 in 10.0 mi West 3.5 mph - N/A   Partly Cloudy
6:53 PM 19.9 °F 13.4 °F 1.9 °F 46% 29.72 in 10.0 mi SSW 4.6 mph - N/A   Scattered Clouds
7:53 PM 19.0 °F 5.0 °F 6.1 °F 57% 29.77 in 6.0 mi West 15.0 mph 29.9 mph 0.00 in Snow Light Snow
8:53 PM 19.9 °F 8.6 °F 5.0 °F 52% 29.79 in 10.0 mi West 10.4 mph - 0.00 in   Mostly Cloudy
9:53 PM 18.0 °F 4.2 °F -4.0 °F 38% 29.85 in 10.0 mi West 13.8 mph 23.0 mph 0.00 in   Overcast
10:53 PM 16.0 °F 2.9 °F 1.0 °F 52% 29.89 in 10.0 mi WNW 11.5 mph 20.7 mph N/A   Scattered Clouds
11:07 PM 15.1 °F 3.3 °F 6.1 °F 68% 29.84 in 1.5 mi West 9.2 mph - 0.00 in Snow Light Snow
11:23 PM 14.0 °F -0.8 °F 3.9 °F 64% 29.85 in 3.0 mi WNW 13.8 mph 24.2 mph 0.00 in Snow Light Snow
11:53 PM 14.0 °F 0.5 °F -2.0 °F 49% 29.92 in 10.0 mi West 11.5 mph 23.0 mph 0.00 in   Scattered Clouds